Stations météo

réclame
Mon MeteoGroup
K14A, Pays-Bas (6204): Température de l'air & dewpoint: 10.07.2019 23:00:00 - 16.07.2019 23:00:00 (CEST)K14A, Pays-Bas (6204): Vitesse du vent & gusts: 10.07.2019 23:00:00 - 16.07.2019 23:00:00 (CEST)K14A, Pays-Bas (6204): Direction du vent: 10.07.2019 23:00:00 - 16.07.2019 23:00:00 (CEST)K14A, Pays-Bas (6204): reduced air pressure: 10.07.2019 23:00:00 - 16.07.2019 23:00:00 (CEST)K14A, Pays-Bas (6204): visibility: 10.07.2019 23:00:00 - 16.07.2019 23:00:00 (CEST)
Date & Time tt [°C] td [°C] ff [km/h] ff [knt] fx [km/h] fx [knt] dd ppp [hPa] vv [km]
16.07.2019 23:00:00 16,0 13,0 4 2 - - S - 10
16.07.2019 22:00:00 16,0 12,5 5 3 7 4 SSW 1018,2 10
16.07.2019 21:00:00 17,6 12,5 4 2 7 4 WSW 1018,2 10
16.07.2019 20:00:00 17,5 12,4 4 2 11 6 - 1018,2 10
16.07.2019 19:00:00 17,2 12,3 9 5 18 10 WSW 1018,4 10
16.07.2019 18:00:00 16,5 11,9 11 6 14 8 SW 1018,6 10
16.07.2019 17:00:00 16,1 11,7 4 2 7 4 - 1018,8 10
16.07.2019 16:00:00 16,0 11,6 8 4 14 8 WSW 1019,1 10
16.07.2019 15:00:00 14,8 10,9 5 3 14 8 - 1019,1 10
16.07.2019 14:00:00 14,6 11,1 9 5 14 8 - 1019,3 10
16.07.2019 13:00:00 14,3 10,9 7 4 14 8 W 1019,4 31
16.07.2019 12:00:00 14,5 10,7 7 4 14 8 W 1019,4 22
16.07.2019 11:00:00 14,0 10,4 7 4 22 12 W 1019,6 33
16.07.2019 10:00:00 13,8 9,9 7 4 18 10 W 1019,7 29
16.07.2019 09:00:00 13,8 10,1 11 6 25 14 WNW 1019,6 25
16.07.2019 08:00:00 13,7 9,6 11 6 22 12 WNW 1019,6 35
16.07.2019 07:00:00 13,7 10,0 14 8 22 12 NW 1019,5 42
16.07.2019 06:00:00 13,8 9,8 14 8 22 12 NW 1019,6 44
16.07.2019 05:00:00 13,9 10,2 11 6 22 12 WNW 1019,6 50
16.07.2019 04:00:00 14,4 10,2 11 6 22 12 W 1019,8 50
16.07.2019 03:00:00 14,2 10,3 11 6 22 12 W 1020,3 48
16.07.2019 02:00:00 14,3 10,3 14 8 22 12 NW 1020,5 45
16.07.2019 01:00:00 14,3 10,1 14 8 22 12 NNW 1020,6 48
16.07.2019 00:00:00 14,3 10,2 18 10 22 12 N 1020,8 10
15.07.2019 23:00:00 14,3 9,9 18 10 22 12 NNW 1020,8 10
15.07.2019 22:00:00 14,5 10,7 21 11 25 14 NNW 1020,8 10
15.07.2019 21:00:00 14,5 11,3 21 11 25 14 NW 1020,8 10
15.07.2019 20:00:00 14,8 10,9 18 10 25 14 NNW 1020,9 40
15.07.2019 19:00:00 14,2 11,9 22 12 25 14 NNW 1021,1 10
15.07.2019 18:00:00 14,4 11,1 18 10 25 14 NNW 1021,4 10
15.07.2019 17:00:00 14,0 11,7 24 13 25 14 NNW 1021,6 10
15.07.2019 16:00:00 14,3 11,3 18 10 25 14 NNW 1021,6 10
15.07.2019 15:00:00 13,9 11,8 16 9 29 16 NNW 1021,7 10
15.07.2019 14:00:00 14,1 11,3 22 12 25 14 NNW 1021,6 10
15.07.2019 13:00:00 13,7 11,4 24 13 29 16 NNW 1021,6 10
15.07.2019 12:00:00 13,5 11,8 21 11 25 14 NNW 1021,6 10
15.07.2019 11:00:00 13,0 11,9 29 16 32 18 NW 1021,4 9
15.07.2019 10:00:00 13,7 10,7 24 13 29 16 NW 1021,2 10
15.07.2019 09:00:00 13,4 11,4 26 14 29 16 NNW 1021,4 10
15.07.2019 08:00:00 14,0 9,7 24 13 29 16 N 1021,3 10
15.07.2019 07:00:00 13,7 10,0 24 13 29 16 NNW 1021,3 10
15.07.2019 06:00:00 13,8 10,0 24 13 29 16 N 1021,4 10
15.07.2019 05:00:00 13,9 9,2 21 11 29 16 N 1021,3 10
15.07.2019 04:00:00 13,8 10,0 18 10 29 16 NNW 1021,5 10
15.07.2019 03:00:00 13,9 9,1 26 14 29 16 N 1021,8 10
15.07.2019 02:00:00 14,0 8,3 22 12 29 16 NNW 1022,2 10
15.07.2019 01:00:00 14,2 8,9 22 12 29 16 N 1022,3 10
15.07.2019 00:00:00 13,9 8,9 28 15 32 18 NNW 1022,4 10
14.07.2019 23:00:00 14,1 9,6 28 15 32 18 NNW 1022,3 10
14.07.2019 22:00:00 14,2 10,4 29 16 36 19 N 1022,2 10
14.07.2019 21:00:00 14,0 11,6 26 14 36 19 N 1022,2 10
14.07.2019 20:00:00 13,7 11,5 28 15 32 18 N 1022,3 10
14.07.2019 19:00:00 13,8 11,3 26 14 32 18 NNW 1022,3 10
14.07.2019 18:00:00 13,9 10,8 29 16 32 18 NNW 1022,4 10
14.07.2019 17:00:00 14,3 10,3 26 14 32 18 NNW 1022,6 10
14.07.2019 16:00:00 14,4 10,7 28 15 32 18 N 1022,5 10
14.07.2019 15:00:00 14,5 10,2 26 14 29 16 N 1022,6 10
14.07.2019 14:00:00 14,6 9,5 24 13 29 16 N 1022,4 10
14.07.2019 13:00:00 14,6 8,8 31 17 36 19 NNW 1022,3 10
14.07.2019 12:00:00 14,8 10,6 35 19 36 19 N 1022,1 10
14.07.2019 11:00:00 14,1 12,1 24 13 40 21 NNW 1021,9 10
14.07.2019 10:00:00 14,9 11,3 31 17 40 21 NNW 1021,6 10
14.07.2019 09:00:00 15,1 11,6 28 15 36 19 NNW 1021,3 10
14.07.2019 08:00:00 15,1 11,7 31 17 32 18 NNW 1021,1 10
14.07.2019 07:00:00 15,0 10,3 34 18 40 21 NNW 1021,1 10
14.07.2019 06:00:00 15,3 10,3 34 18 32 18 NNW 1021,2 10
14.07.2019 05:00:00 14,9 11,2 24 13 36 19 NNW 1021,3 10
14.07.2019 04:00:00 15,2 10,7 31 17 32 18 NNW 1021,5 10
14.07.2019 03:00:00 14,9 10,7 28 15 40 21 N 1021,8 10
14.07.2019 02:00:00 14,7 11,2 31 17 40 21 N 1021,7 10
14.07.2019 01:00:00 14,6 12,4 29 16 32 18 N 1021,7 10
14.07.2019 00:00:00 15,0 11,8 31 17 36 19 NNW 1022,0 10
13.07.2019 23:00:00 15,0 11,3 34 18 36 19 NNW 1022,0 10
13.07.2019 22:00:00 15,0 9,7 34 18 36 19 N 1021,8 10
13.07.2019 21:00:00 14,9 11,2 34 18 32 18 NNW 1021,5 10
13.07.2019 20:00:00 14,6 12,9 29 16 36 19 NNW 1021,2 10
13.07.2019 19:00:00 15,1 11,2 29 16 32 18 NNW 1021,1 10
13.07.2019 18:00:00 15,1 11,3 26 14 32 18 NNW 1021,0 10
13.07.2019 17:00:00 14,9 12,1 29 16 32 18 NNW 1021,0 10
13.07.2019 16:00:00 15,2 11,5 29 16 32 18 NNW 1021,0 10
13.07.2019 15:00:00 14,3 13,3 29 16 29 16 NNW 1021,0 10
13.07.2019 14:00:00 14,8 11,8 26 14 32 18 NNW 1020,8 10
13.07.2019 13:00:00 15,0 10,8 28 15 29 16 NNW 1020,5 10
13.07.2019 12:00:00 15,4 11,9 28 15 32 18 N 1019,9 10
13.07.2019 11:00:00 15,5 13,3 29 16 32 18 N 1019,4 10
13.07.2019 10:00:00 15,3 14,0 31 17 36 19 N 1019,0 10
13.07.2019 09:00:00 15,2 14,0 42 23 47 25 N 1018,6 10
13.07.2019 08:00:00 15,7 15,2 26 14 29 16 NW 1017,8 10
13.07.2019 07:00:00 15,2 15,0 28 15 36 19 WNW 1017,4 10
13.07.2019 06:00:00 15,2 14,9 26 14 32 18 WNW 1017,4 9
13.07.2019 05:00:00 15,8 15,0 16 9 25 14 - 1017,1 10
13.07.2019 04:00:00 15,8 15,2 21 11 25 14 NNW 1016,8 10
13.07.2019 03:00:00 15,5 14,9 21 11 29 16 NNW 1016,5 9
13.07.2019 02:00:00 16,0 15,2 24 13 25 14 NW 1016,4 10
13.07.2019 01:00:00 15,9 14,8 21 11 25 14 NW 1016,3 10
13.07.2019 00:00:00 15,8 14,7 22 12 25 14 NW 1016,0 10
12.07.2019 23:00:00 15,7 14,8 22 12 29 16 NW 1015,6 10
12.07.2019 22:00:00 15,3 14,2 28 15 29 16 NNW 1015,1 10
12.07.2019 21:00:00 15,3 14,1 28 15 29 16 NNW 1014,7 10
12.07.2019 20:00:00 15,5 13,9 29 16 29 16 WNW 1014,0 10
12.07.2019 19:00:00 15,7 14,1 29 16 32 18 NW 1013,6 10
12.07.2019 18:00:00 16,0 14,5 22 12 29 16 WNW 1013,2 10
12.07.2019 17:00:00 16,0 14,5 29 16 32 18 WNW 1013,0 10
12.07.2019 16:00:00 16,0 14,4 24 13 32 18 - 1012,8 10
12.07.2019 15:00:00 16,1 14,7 24 13 29 16 - 1012,3 10
12.07.2019 14:00:00 15,8 14,5 28 15 36 19 W 1011,9 10
12.07.2019 13:00:00 15,7 14,3 26 14 36 19 - 1011,7 10
12.07.2019 12:00:00 15,3 14,4 22 12 32 18 - 1011,5 10
12.07.2019 11:00:00 15,9 13,8 26 14 36 19 - 1011,0 10
12.07.2019 10:00:00 15,9 14,5 18 10 29 16 W 1010,5 25
12.07.2019 09:00:00 16,1 15,2 16 9 29 16 W - 10
12.07.2019 08:00:00 16,6 15,3 9 5 18 10 W - 10
12.07.2019 07:00:00 16,5 15,1 9 5 14 8 - - 10
12.07.2019 06:00:00 16,9 15,0 5 3 22 12 - - 10
12.07.2019 05:00:00 16,8 15,1 9 5 29 16 - - 10
12.07.2019 04:00:00 16,3 15,1 24 13 25 14 WSW - 10
12.07.2019 03:00:00 16,4 15,0 22 12 29 16 WSW - 10
12.07.2019 02:00:00 16,4 15,0 28 15 29 16 WSW - 10
12.07.2019 01:00:00 16,6 15,0 21 11 22 12 SSW - 10
12.07.2019 00:00:00 16,5 15,0 15 8 18 10 S - 10
11.07.2019 23:00:00 16,4 15,1 16 9 18 10 SSW - 10
11.07.2019 22:00:00 16,6 15,1 18 10 18 10 SSW - 10
11.07.2019 21:00:00 16,4 15,0 18 10 18 10 SSW - 10
11.07.2019 20:00:00 16,5 14,9 16 9 14 8 SSW - 10
11.07.2019 19:00:00 16,0 14,8 9 5 11 6 WSW - 10
11.07.2019 18:00:00 16,7 14,7 5 3 22 12 - - 9
11.07.2019 17:00:00 16,0 14,8 13 7 22 12 - - 10
11.07.2019 16:00:00 16,2 14,7 13 7 22 12 - - 10
11.07.2019 15:00:00 16,2 14,9 9 5 25 14 - - 10
11.07.2019 14:00:00 17,0 15,0 24 13 25 14 W - 8
11.07.2019 13:00:00 16,1 15,2 22 12 22 12 WSW - 10
11.07.2019 12:00:00 16,2 15,2 18 10 22 12 WSW - 10
11.07.2019 11:00:00 16,4 15,1 22 12 29 16 WSW - 10
11.07.2019 10:00:00 16,6 15,4 22 12 32 18 SW - 10
11.07.2019 09:00:00 16,6 15,5 24 13 25 14 SW - 10
11.07.2019 08:00:00 16,6 15,5 22 12 25 14 SSW - 10
11.07.2019 07:00:00 16,6 15,5 18 10 22 12 SW - 10
11.07.2019 06:00:00 16,5 15,4 21 11 22 12 WSW - 10
11.07.2019 05:00:00 16,1 15,4 21 11 22 12 SW - 9
11.07.2019 04:00:00 16,2 15,4 22 12 22 12 SW - 10
11.07.2019 03:00:00 16,4 15,3 26 14 25 14 SSW - 10
11.07.2019 02:00:00 16,7 15,4 31 17 29 16 SSW - 10
11.07.2019 01:00:00 16,9 15,2 28 15 25 14 S - 10
11.07.2019 00:00:00 16,9 15,0 26 14 25 14 S - 10
10.07.2019 23:00:00 17,0 14,8 34 18 29 16 S - 10

tt = Température de l'air
td = dewpoint
ff = Vitesse du vent
fx = gusts
dd = Direction du vent
ppp = reduced air pressure
vv = visibility

stations d'obs. à proximité